Location: Blairvadach
(56.2780°N, 6.9720°W)
Time: 15:06:57
(UTC+00:00)

Envisat - Pass Details

Date: 16 November 2019
Orbit: 764 x 766 km, 98.1° (Epoch: 11 December)

Event Time Altitude Azimuth Distance (km) Brightness Sun altitude
Rises 17:30:15 0° 145° (SE) 3,227 6.1 -9.9°
Reaches altitude 10° 17:32:35 10° 141° (SE) 2,304 5.3 -10.2°
Maximum altitude 17:37:30 52° 66° (ENE) 948 3.1 -10.8°
Drops below altitude 10° 17:42:27 10° 351° (N) 2,318 5.4 -11.5°
Sets 17:44:48 0° 347° (NNW) 3,248 6.2 -11.8°
